timestamp,wind_dir_avg,wind_spd_avg,wind_spd_max_dir,wind_spd_gust,battery_voltage,lat,long
2024-02-29 00:04:00+00:00,214.0,8.83,216.0,9.86,12.25,47.59359,-54.27349
2024-02-29 00:14:00+00:00,213.0,9.12,206.0,10.43,12.17,47.59359,-54.27349
2024-02-29 00:24:00+00:00,218.0,9.47,217.0,10.65,12.17,47.59359,-54.27349
2024-02-29 00:34:00+00:00,217.0,9.23,218.0,10.67,12.17,47.59359,-54.27349
2024-02-29 00:44:00+00:00,218.0,7.38,231.0,8.64,12.17,47.59359,-54.27349
2024-02-29 00:54:00+00:00,214.0,8.87,212.0,10.32,12.17,47.59359,-54.27349
2024-02-29 01:04:00+00:00,212.0,7.83,217.0,10.78,12.17,47.59359,-54.27349
2024-02-29 01:14:00+00:00,221.0,7.3,227.0,9.04,12.17,47.59359,-54.27349
2024-02-29 01:24:00+00:00,221.0,9.32,231.0,11.61,12.17,47.59359,-54.27349
2024-02-29 01:34:00+00:00,226.0,7.68,239.0,10.92,12.17,47.59359,-54.27349
2024-02-29 01:44:00+00:00,225.0,8.99,226.0,9.87,12.17,47.59359,-54.27349
2024-02-29 01:54:00+00:00,233.0,9.65,236.0,11.38,12.17,47.59359,-54.27349
2024-02-29 02:04:00+00:00,226.0,8.63,235.0,12.03,12.17,47.59359,-54.27349
2024-02-29 02:14:00+00:00,220.0,7.24,233.0,11.48,12.17,47.59359,-54.27349
2024-02-29 02:24:00+00:00,223.0,10.9,222.0,12.63,12.17,47.59359,-54.27349
2024-02-29 02:34:00+00:00,225.0,11.52,226.0,12.74,12.17,47.59359,-54.27349
2024-02-29 02:44:00+00:00,224.0,9.67,234.0,11.77,12.17,47.59359,-54.27349
2024-02-29 02:54:00+00:00,227.0,7.4,233.0,10.86,12.17,47.59359,-54.27349
2024-02-29 03:04:00+00:00,230.0,8.48,235.0,11.46,12.17,47.59359,-54.27349
2024-02-29 03:14:00+00:00,234.0,9.57,237.0,11.04,12.17,47.59359,-54.27349
2024-02-29 03:24:00+00:00,224.0,9.59,228.0,10.89,12.17,47.59359,-54.27349
2024-02-29 03:34:00+00:00,226.0,8.87,231.0,10.53,12.17,47.59359,-54.27349
2024-02-29 03:44:00+00:00,227.0,9.13,223.0,10.89,12.17,47.59359,-54.27349
2024-02-29 03:54:00+00:00,233.0,9.92,234.0,12.57,12.17,47.59359,-54.27349
2024-02-29 04:04:00+00:00,228.0,8.91,237.0,11.29,12.17,47.59359,-54.27349
2024-02-29 04:14:00+00:00,226.0,10.58,229.0,12.89,12.09,47.59359,-54.27349
2024-02-29 04:24:00+00:00,224.0,10.11,218.0,12.17,12.09,47.59359,-54.27349
2024-02-29 04:34:00+00:00,228.0,10.25,228.0,12.02,12.09,47.59359,-54.27349
2024-02-29 04:44:00+00:00,230.0,9.99,229.0,11.59,12.09,47.59359,-54.27349
2024-02-29 04:54:00+00:00,230.0,11.52,234.0,12.74,12.09,47.59359,-54.27349
2024-02-29 05:04:00+00:00,227.0,10.61,228.0,12.13,12.09,47.59359,-54.27349
2024-02-29 05:14:01+00:00,237.0,10.09,246.0,11.6,12.09,47.59359,-54.27349
2024-02-29 05:24:01+00:00,240.0,9.93,249.0,11.25,12.09,47.59359,-54.27349
2024-02-29 05:34:01+00:00,236.0,9.67,240.0,11.25,12.09,47.59359,-54.27349
2024-02-29 05:44:01+00:00,241.0,9.57,241.0,11.23,12.09,47.59359,-54.27349
2024-02-29 05:54:01+00:00,246.0,9.41,250.0,11.22,12.09,47.59359,-54.27349
2024-02-29 06:04:01+00:00,229.0,8.64,223.0,9.87,12.09,47.59359,-54.27349
2024-02-29 06:14:00+00:00,225.0,8.81,222.0,10.87,12.09,47.59359,-54.27349
2024-02-29 06:24:00+00:00,224.0,10.09,231.0,11.99,12.09,47.59359,-54.27349
2024-02-29 06:34:00+00:00,221.0,10.94,228.0,12.59,12.09,47.59359,-54.27349
2024-02-29 06:44:00+00:00,221.0,10.69,224.0,12.32,12.09,47.59359,-54.27349
2024-02-29 06:54:00+00:00,228.0,10.54,235.0,12.9,12.09,47.59359,-54.27349
2024-02-29 07:04:00+00:00,233.0,9.2,242.0,10.58,12.09,47.59359,-54.27349
2024-02-29 07:14:00+00:00,237.0,10.23,244.0,13.67,12.09,47.59359,-54.27349
2024-02-29 07:24:00+00:00,235.0,11.0,234.0,12.43,12.09,47.59359,-54.27349
2024-02-29 07:34:00+00:00,229.0,12.37,234.0,14.41,12.09,47.59359,-54.27349
2024-02-29 07:44:00+00:00,228.0,12.03,225.0,14.19,12.09,47.59359,-54.27349
2024-02-29 07:54:00+00:00,225.0,12.53,229.0,15.4,12.09,47.59359,-54.27349
2024-02-29 08:04:00+00:00,213.0,13.19,220.0,17.75,12.09,47.59359,-54.27349
2024-02-29 08:14:00+00:00,211.0,13.0,220.0,16.84,12.01,47.59359,-54.27349
2024-02-29 08:24:00+00:00,205.0,15.1,197.0,19.64,12.01,47.59359,-54.27349
2024-02-29 08:34:00+00:00,206.0,14.66,208.0,18.55,12.01,47.59359,-54.27349
2024-02-29 08:44:00+00:00,199.0,17.63,222.0,23.3,12.01,47.59359,-54.27349
2024-02-29 08:54:00+00:00,201.0,16.06,202.0,18.64,12.01,47.59359,-54.27349
2024-02-29 09:04:00+00:00,203.0,16.33,211.0,19.63,12.01,47.59359,-54.27349
2024-02-29 09:14:01+00:00,203.0,16.05,217.0,18.23,12.01,47.59359,-54.27349
2024-02-29 09:24:01+00:00,205.0,16.75,214.0,19.89,12.01,47.59359,-54.27349
2024-02-29 09:34:01+00:00,213.0,15.59,221.0,18.09,12.01,47.59359,-54.27349
2024-02-29 09:44:01+00:00,205.0,16.24,212.0,19.63,12.01,47.59359,-54.27349
2024-02-29 09:54:01+00:00,204.0,15.09,202.0,16.63,12.01,47.59359,-54.27349
2024-02-29 10:04:01+00:00,207.0,15.37,198.0,17.76,12.01,47.59359,-54.27349
2024-02-29 10:14:01+00:00,203.0,15.4,209.0,17.88,12.01,47.59359,-54.27349
2024-02-29 10:24:01+00:00,200.0,16.66,199.0,18.94,12.01,47.59359,-54.27349
2024-02-29 10:34:01+00:00,207.0,13.55,199.0,15.31,12.01,47.59359,-54.27349
2024-02-29 10:44:01+00:00,205.0,14.15,203.0,16.78,12.01,47.59359,-54.27349
2024-02-29 10:54:01+00:00,204.0,14.52,202.0,17.27,12.01,47.59359,-54.27349
2024-02-29 11:04:01+00:00,202.0,15.0,208.0,17.63,12.01,47.59359,-54.27349
2024-02-29 11:14:00+00:00,203.0,14.04,202.0,15.72,12.01,47.59359,-54.27349
2024-02-29 11:24:00+00:00,204.0,13.04,202.0,14.89,12.01,47.59359,-54.27349
2024-02-29 11:34:00+00:00,202.0,14.63,203.0,16.62,12.01,47.59359,-54.27349
2024-02-29 11:44:00+00:00,208.0,12.3,209.0,14.09,12.01,47.59359,-54.27349
2024-02-29 11:54:00+00:00,210.0,11.97,217.0,13.35,12.01,47.59359,-54.27349
2024-02-29 12:04:00+00:00,210.0,13.84,225.0,17.77,12.01,47.59359,-54.27349
2024-02-29 12:14:00+00:00,212.0,13.41,221.0,18.78,12.09,47.59359,-54.27349
2024-02-29 12:24:00+00:00,219.0,12.67,225.0,17.54,12.09,47.59359,-54.27349
2024-02-29 12:34:00+00:00,217.0,10.7,232.0,13.85,12.09,47.59359,-54.27349
2024-02-29 12:44:00+00:00,226.0,13.23,232.0,15.93,12.09,47.59359,-54.27349
2024-02-29 12:54:00+00:00,212.0,13.88,225.0,17.69,12.09,47.59359,-54.27349
2024-02-29 13:04:00+00:00,214.0,11.34,230.0,14.15,12.09,47.59359,-54.27349
2024-02-29 13:14:00+00:00,228.0,11.67,237.0,14.77,12.49,47.59359,-54.27349
2024-02-29 13:24:00+00:00,230.0,14.83,231.0,16.77,12.49,47.59359,-54.27349
2024-02-29 13:34:00+00:00,210.0,14.37,224.0,19.3,12.49,47.59359,-54.27349
2024-02-29 13:44:00+00:00,210.0,14.44,221.0,19.25,12.49,47.59359,-54.27349
2024-02-29 13:54:00+00:00,208.0,12.48,219.0,15.15,12.49,47.59359,-54.27349
2024-02-29 14:04:00+00:00,200.0,13.42,199.0,15.08,12.49,47.59359,-54.27349
2024-02-29 14:14:00+00:00,206.0,12.89,216.0,16.86,13.29,47.59359,-54.27349
2024-02-29 14:24:00+00:00,197.0,14.82,194.0,16.34,13.29,47.59359,-54.27349
2024-02-29 14:34:00+00:00,200.0,13.99,200.0,16.44,13.29,47.59359,-54.27349
2024-02-29 14:44:00+00:00,203.0,12.63,204.0,13.71,13.29,47.59359,-54.27349
2024-02-29 14:54:00+00:00,216.0,11.07,216.0,13.13,13.29,47.59359,-54.27349
2024-02-29 15:04:00+00:00,213.0,12.39,211.0,14.18,13.29,47.59359,-54.27349
2024-02-29 15:14:00+00:00,199.0,13.15,195.0,15.37,13.37,47.59359,-54.27349
2024-02-29 15:24:00+00:00,239.0,8.01,246.0,9.32,13.37,47.59359,-54.27349
2024-02-29 15:34:00+00:00,242.0,7.75,243.0,9.33,13.37,47.59359,-54.27349
2024-02-29 15:44:00+00:00,232.0,7.24,222.0,8.77,13.37,47.59359,-54.27349
2024-02-29 15:54:00+00:00,234.0,9.27,230.0,11.2,13.37,47.59359,-54.27349
2024-02-29 16:04:00+00:00,229.0,10.81,233.0,12.4,13.37,47.59359,-54.27349
2024-02-29 16:14:00+00:00,222.0,10.39,221.0,12.25,13.6,47.59359,-54.27349
2024-02-29 16:24:00+00:00,223.0,10.4,221.0,12.14,13.6,47.59359,-54.27349
2024-02-29 16:34:00+00:00,217.0,11.14,210.0,14.24,13.6,47.59359,-54.27349
2024-02-29 16:44:00+00:00,229.0,10.47,227.0,13.1,13.6,47.59359,-54.27349
2024-02-29 16:54:00+00:00,228.0,10.38,232.0,11.66,13.6,47.59359,-54.27349
2024-02-29 17:04:00+00:00,241.0,10.28,243.0,11.54,13.6,47.59359,-54.27349
2024-02-29 17:14:00+00:00,243.0,9.65,245.0,11.48,13.53,47.59359,-54.27349
2024-02-29 17:24:00+00:00,241.0,10.49,243.0,11.5,13.53,47.59359,-54.27349
2024-02-29 17:34:00+00:00,238.0,10.72,231.0,12.62,13.53,47.59359,-54.27349
2024-02-29 17:44:00+00:00,233.0,10.84,234.0,12.74,13.53,47.59359,-54.27349
2024-02-29 17:54:00+00:00,229.0,10.74,228.0,12.72,13.53,47.59359,-54.27349
2024-02-29 18:04:00+00:00,228.0,11.32,233.0,12.45,13.53,47.59359,-54.27349
2024-02-29 18:14:00+00:00,227.0,11.69,226.0,13.78,13.44,47.59359,-54.27349
2024-02-29 18:24:00+00:00,234.0,11.38,235.0,12.18,13.44,47.59359,-54.27349
2024-02-29 18:34:00+00:00,236.0,10.32,236.0,11.91,13.44,47.59359,-54.27349
2024-02-29 18:44:00+00:00,231.0,9.72,232.0,11.46,13.44,47.59359,-54.27349
2024-02-29 18:54:00+00:00,231.0,10.02,230.0,11.74,13.44,47.59359,-54.27349
2024-02-29 19:04:00+00:00,248.0,9.9,249.0,11.39,13.44,47.59359,-54.27349
2024-02-29 19:14:00+00:00,254.0,8.35,260.0,10.74,13.44,47.59359,-54.27349
2024-02-29 19:24:00+00:00,315.0,0.01,250.0,0.0,13.44,47.59359,-54.27349
2024-02-29 19:34:00+00:00,254.0,7.37,256.0,7.86,13.44,47.59359,-54.27349
2024-02-29 19:44:00+00:00,243.0,7.25,248.0,9.88,13.44,47.59359,-54.27349
2024-02-29 19:54:00+00:00,259.0,7.73,266.0,9.91,13.44,47.59359,-54.27349
2024-02-29 20:04:00+00:00,253.0,6.8,257.0,8.57,13.44,47.59359,-54.27349
2024-02-29 20:14:00+00:00,257.0,6.15,261.0,8.52,13.05,47.59359,-54.27349
2024-02-29 20:24:00+00:00,269.0,7.14,269.0,8.92,13.05,47.59359,-54.27349
2024-02-29 20:34:00+00:00,256.0,6.25,256.0,6.92,13.05,47.59359,-54.27349
2024-02-29 20:44:00+00:00,264.0,7.14,264.0,7.8,13.05,47.59359,-54.27349
2024-02-29 20:54:00+00:00,253.0,6.46,252.0,7.18,13.05,47.59359,-54.27349
2024-02-29 21:04:00+00:00,233.0,5.22,233.0,7.2,13.05,47.59359,-54.27349
2024-02-29 21:14:00+00:00,232.0,8.18,240.0,11.76,12.41,47.59359,-54.27349
2024-02-29 21:24:00+00:00,199.0,9.27,213.0,12.15,12.41,47.59359,-54.27349
2024-02-29 21:34:00+00:00,194.0,12.38,190.0,14.2,12.41,47.59359,-54.27349
2024-02-29 21:44:00+00:00,195.0,13.68,193.0,16.16,12.41,47.59359,-54.27349
2024-02-29 21:54:00+00:00,199.0,13.74,207.0,15.16,12.41,47.59359,-54.27349
2024-02-29 22:04:00+00:00,202.0,10.46,215.0,12.67,12.41,47.59359,-54.27349
2024-02-29 22:14:00+00:00,210.0,15.32,223.0,19.35,12.25,47.59359,-54.27349
2024-02-29 22:24:00+00:00,200.0,14.94,212.0,17.84,12.25,47.59359,-54.27349
2024-02-29 22:34:00+00:00,213.0,14.19,223.0,18.46,12.25,47.59359,-54.27349
2024-02-29 22:44:00+00:00,205.0,14.77,220.0,18.62,12.25,47.59359,-54.27349
2024-02-29 22:54:00+00:00,207.0,17.79,221.0,20.88,12.25,47.59359,-54.27349
2024-02-29 23:04:00+00:00,233.0,16.05,246.0,20.52,12.25,47.59359,-54.27349
2024-02-29 23:14:00+00:00,223.0,14.62,222.0,17.21,12.25,47.59359,-54.27349
2024-02-29 23:24:00+00:00,217.0,13.36,220.0,15.88,12.25,47.59359,-54.27349
2024-02-29 23:34:00+00:00,220.0,17.56,220.0,19.67,12.25,47.59359,-54.27349
2024-02-29 23:44:00+00:00,219.0,15.96,224.0,18.72,12.25,47.59359,-54.27349
2024-02-29 23:54:00+00:00,216.0,13.51,219.0,17.3,12.25,47.59359,-54.27349
